| time (UTC) | temp F | wind direction | speed knots | gust knots | rain 1hr in | rain 24hr in | rain mn in | humidity % | barometer mb |
| 20260507125403 | 55 | 18 | 7.8 | 7.0 | 0.00 | 0.00 | 0.00 | ||
| 20260507124901 | 54 | 13 | 7.8 | 7.0 | 0.00 | 0.00 | 0.00 | ||
| 20260507124402 | 54 | 23 | 9.6 | 13.0 | 0.00 | 0.00 | 0.00 | ||
| 20260507123902 | 53 | 17 | 7.8 | 8.7 | 0.00 | 0.00 | 0.00 | ||
| 20260507123400 | 53 | 1 | 9.6 | 8.7 | 0.00 | 0.00 | 0.00 | ||
| 20260507122900 | 53 | 25 | 7.0 | 8.7 | 0.00 | 0.00 | 0.00 | ||
| 20260507122401 | 53 | 24 | 7.0 | 7.0 | 0.00 | 0.00 | 0.00 | ||
| 20260507121859 | 53 | 349 | 7.0 | 12.2 | 0.00 | 0.00 | 0.00 | ||
| 20260507121400 | 53 | 342 | 7.8 | 7.8 | 0.00 | 0.00 | 0.00 | ||
| 20260507120900 | 53 | 7 | 7.8 | 8.7 | 0.00 | 0.00 | 0.00 | ||
| 20260507120357 | 53 | 32 | 7.0 | 5.2 | 0.00 | 0.00 | 0.00 | ||
| 20260507115858 | 53 | 359 | 10.4 | 7.0 | 0.00 | 0.00 | 0.00 | ||
| 20260507115358 | 54 | 7 | 11.3 | 7.8 | 0.00 | 0.00 | 0.00 | ||
| 20260507114856 | 53 | 4 | 10.4 | 8.7 | 0.00 | 0.00 | 0.00 | ||
| 20260507114356 | 54 | 25 | 8.7 | 7.8 | 0.00 | 0.00 | 0.00 | ||
| 20260507113857 | 54 | 10 | 9.6 | 9.6 | 0.00 | 0.00 | 0.00 | ||
| 20260507113354 | 54 | 353 | 8.7 | 8.7 | 0.00 | 0.00 | 0.00 | ||
| 20260507112855 | 54 | 13 | 7.8 | 6.1 | 0.00 | 0.00 | 0.00 | ||
| 20260507112355 | 54 | 357 | 7.8 | 7.8 | 0.00 | 0.00 | 0.00 | ||
| 20260507111853 | 54 | 4 | 7.8 | 9.6 | 0.00 | 0.00 | 0.00 | ||
| 20260507111424 | 55 | 13 | 9.6 | 7.8 | 0.00 | 0.00 | 0.00 | ||
| 20260507111353 | 55 | 13 | 9.6 | 7.8 | 0.00 | 0.00 | 0.00 | ||
| 20260507110926 | 55 | 8 | 10.4 | 9.6 | 0.00 | 0.00 | 0.00 | ||
| 20260507110854 | 55 | 8 | 10.4 | 9.6 | 0.00 | 0.00 | 0.00 | ||
| 20260507105852 | 55 | 4 | 7.8 | 7.0 | 0.00 | 0.00 | 0.00 | ||
| 20260507105352 | 55 | 359 | 9.6 | 8.7 | 0.00 | 0.00 | 0.00 | ||
| 20260507104850 | 56 | 353 | 8.7 | 7.8 | 0.00 | 0.00 | 0.00 | ||
| 20260507104350 | 55 | 35 | 8.7 | 7.8 | 0.00 | 0.00 | 0.00 | ||
| 20260507103850 | 55 | 18 | 12.2 | 11.3 | 0.00 | 0.00 | 0.00 | ||
| 20260507103348 | 55 | 0 | 7.8 | 12.2 | 0.00 | 0.00 | 0.00 | ||
| 20260507102848 | 55 | 18 | 11.3 | 10.4 | 0.00 | 0.00 | 0.00 | ||
| 20260507102348 | 55 | 13 | 9.6 | 7.8 | 0.00 | 0.00 | 0.00 | ||
| 20260507101846 | 56 | 1 | 8.7 | 8.7 | 0.00 | 0.00 | 0.00 | ||
| 20260507100847 | 55 | 0 | 11.3 | 10.4 | 0.00 | 0.00 | 0.00 | ||
| 20260507100344 | 56 | 18 | 7.0 | 6.1 | 0.00 | 0.00 | 0.00 | ||
| 20260507095844 | 56 | 349 | 9.6 | 7.8 | 0.00 | 0.00 | 0.00 | ||
| 20260507095345 | 56 | 13 | 7.0 | 7.0 | 0.00 | 0.00 | 0.00 | ||
| 20260507094842 | 56 | 14 | 8.7 | 6.1 | 0.00 | 0.00 | 0.00 | ||
| 20260507094343 | 56 | 357 | 8.7 | 9.6 | 0.00 | 0.00 | 0.00 | ||
| 20260507093843 | 56 | 1 | 7.8 | 7.8 | 0.00 | 0.00 | 0.00 | ||
| 20260507093340 | 56 | 3 | 8.7 | 7.8 | 0.00 | 0.00 | 0.00 | ||
| 20260507092841 | 56 | 21 | 7.8 | 8.7 | 0.00 | 0.00 | 0.00 | ||
| 20260507092341 | 56 | 31 | 7.8 | 7.0 | 0.00 | 0.00 | 0.00 | ||
| 20260507091839 | 56 | 21 | 7.8 | 9.6 | 0.00 | 0.00 | 0.00 | ||
| 20260507091339 | 56 | 7 | 10.4 | 11.3 | 0.00 | 0.00 | 0.00 | ||
| 20260507090839 | 56 | 14 | 7.8 | 8.7 | 0.00 | 0.00 | 0.00 | ||
| 20260507090337 | 56 | 30 | 8.7 | 7.8 | 0.00 | 0.00 | 0.00 | ||
| 20260507085837 | 56 | 352 | 8.7 | 7.8 | 0.00 | 0.00 | 0.00 | ||
| 20260507085338 | 56 | 25 | 7.8 | 10.4 | 0.00 | 0.00 | 0.00 | ||
| 20260507084835 | 56 | 6 | 8.7 | 7.8 | 0.00 | 0.00 | 0.00 | ||
| 20260507084335 | 56 | 6 | 7.8 | 7.8 | 0.00 | 0.00 | 0.00 | ||
| 20260507083835 | 56 | 3 | 8.7 | 8.7 | 0.00 | 0.00 | 0.00 | ||
| 20260507083333 | 56 | 3 | 9.6 | 10.4 | 0.00 | 0.00 | 0.00 | ||
| 20260507082833 | 57 | 11 | 7.0 | 7.0 | 0.00 | 0.00 | 0.00 | ||
| 20260507082334 | 57 | 8 | 7.0 | 5.2 | 0.00 | 0.00 | 0.00 | ||
| 20260507081831 | 57 | 14 | 6.1 | 6.1 | 0.00 | 0.00 | 0.00 | ||
| 20260507081332 | 57 | 18 | 6.1 | 7.0 | 0.00 | 0.00 | 0.00 | ||
| 20260507080832 | 57 | 8 | 6.1 | 6.1 | 0.00 | 0.00 | 0.00 | ||
| 20260507080330 | 57 | 21 | 6.1 | 7.0 | 0.00 | 0.00 | 0.00 | ||
| 20260507075830 | 57 | 28 | 6.1 | 6.1 | 0.00 | 0.00 | 0.00 | ||
| 20260507075330 | 57 | 28 | 7.0 | 7.0 | 0.00 | 0.00 | 0.00 | ||
| 20260507074828 | 57 | 8 | 6.1 | 5.2 | 0.00 | 0.00 | 0.00 | ||
| 20260507074328 | 57 | 6 | 7.0 | 7.0 | 0.00 | 0.00 | 0.00 | ||
| 20260507073829 | 57 | 10 | 7.0 | 5.2 | 0.00 | 0.00 | 0.00 | ||
| 20260507073326 | 57 | 1 | 7.8 | 9.6 | 0.00 | 0.00 | 0.00 | ||
| 20260507072827 | 57 | 7 | 8.7 | 7.0 | 0.00 | 0.00 | 0.00 | ||
| 20260507072327 | 57 | 15 | 7.8 | 7.0 | 0.00 | 0.00 | 0.00 | ||
| 20260507071825 | 57 | 347 | 7.8 | 8.7 | 0.00 | 0.00 | 0.00 | ||
| 20260507071325 | 57 | 4 | 8.7 | 9.6 | 0.00 | 0.00 | 0.00 | ||
| 20260507070826 | 58 | 8 | 7.8 | 9.6 | 0.00 | 0.00 | 0.00 | ||
| 20260507070323 | 57 | 13 | 7.8 | 8.7 | 0.00 | 0.00 | 0.00 | ||
| 20260507065824 | 57 | 13 | 7.0 | 5.2 | 0.00 | 0.00 | 0.00 | ||
| 20260507065324 | 57 | 34 | 7.0 | 7.8 | 0.00 | 0.00 | 0.00 | ||
| 20260507064822 | 58 | 25 | 7.0 | 7.8 | 0.00 | 0.00 | 0.00 | ||
| 20260507064322 | 57 | 4 | 7.0 | 7.8 | 0.00 | 0.00 | 0.00 | ||
| 20260507063823 | 58 | 13 | 7.0 | 7.8 | 0.00 | 0.00 | 0.00 | ||
| 20260507063320 | 58 | 18 | 5.2 | 7.0 | 0.00 | 0.00 | 0.00 | ||
| 20260507062821 | 58 | 25 | 6.1 | 7.0 | 0.00 | 0.00 | 0.00 | ||
| 20260507062321 | 58 | 10 | 7.8 | 5.2 | 0.00 | 0.00 | 0.00 | ||
| 20260507061819 | 58 | 13 | 7.8 | 7.8 | 0.00 | 0.00 | 0.00 | ||
| 20260507061320 | 58 | 15 | 6.1 | 7.0 | 0.00 | 0.00 | 0.00 | ||
| 20260507060820 | 58 | 24 | 7.0 | 7.8 | 0.00 | 0.00 | 0.00 | ||
| 20260507060721 | 58 | 17 | 7.0 | 4.3 | 0.00 | 0.00 | 0.00 | ||
| 20260507060318 | 58 | 17 | 7.0 | 4.3 | 0.00 | 0.00 | 0.00 | ||
| 20260507055818 | 58 | 37 | 7.0 | 7.0 | 0.00 | 0.00 | 0.00 | ||
| 20260507055319 | 58 | 41 | 7.0 | 6.1 | 0.00 | 0.00 | 0.00 | ||
| 20260507054817 | 59 | 31 | 7.8 | 6.1 | 0.00 | 0.00 | 0.00 | ||
| 20260507054317 | 59 | 30 | 5.2 | 4.3 | 0.00 | 0.00 | 0.00 | ||
| 20260507053818 | 59 | 38 | 6.1 | 7.8 | 0.00 | 0.00 | 0.00 | ||
| 20260507053315 | 59 | 59 | 7.8 | 7.0 | 0.00 | 0.00 | 0.00 | ||
| 20260507052816 | 59 | 30 | 7.8 | 8.7 | 0.00 | 0.00 | 0.00 | ||
| 20260507052316 | 59 | 11 | 7.0 | 8.7 | 0.00 | 0.00 | 0.00 | ||
| 20260507051814 | 59 | 31 | 7.0 | 7.8 | 0.00 | 0.00 | 0.00 | ||
| 20260507051314 | 60 | 30 | 6.1 | 7.0 | 0.00 | 0.00 | 0.00 | ||
| 20260507050815 | 60 | 44 | 7.0 | 7.8 | 0.00 | 0.00 | 0.00 | ||
| 20260507050313 | 60 | 27 | 7.0 | 5.2 | 0.00 | 0.00 | 0.00 | ||
| 20260507045813 | 60 | 49 | 7.8 | 6.1 | 0.00 | 0.00 | 0.00 | ||
| 20260507045313 | 60 | 37 | 7.8 | 8.7 | 0.00 | 0.00 | 0.00 | ||
| 20260507044811 | 60 | 31 | 6.1 | 7.8 | 0.00 | 0.00 | 0.00 | ||
| 20260507044312 | 61 | 48 | 6.1 | 7.8 | 0.00 | 0.00 | 0.00 | ||
| 20260507043812 | 61 | 65 | 8.7 | 7.0 | 0.00 | 0.00 | 0.00 | ||
| 20260507043310 | 61 | 65 | 9.6 | 9.6 | 0.00 | 0.00 | 0.00 | ||
| 20260507042810 | 61 | 21 | 7.8 | 9.6 | 0.00 | 0.00 | 0.00 | ||
| 20260507042311 | 61 | 14 | 8.7 | 8.7 | 0.00 | 0.00 | 0.00 | ||
| 20260507041808 | 61 | 44 | 7.0 | 7.8 | 0.00 | 0.00 | 0.00 | ||
| 20260507041309 | 62 | 28 | 6.1 | 6.1 | 0.00 | 0.00 | 0.00 | ||
| 20260507040809 | 62 | 45 | 6.1 | 6.1 | 0.00 | 0.00 | 0.00 | ||
| 20260507040307 | 62 | 52 | 4.3 | 4.3 | 0.00 | 0.00 | 0.00 | ||
| 20260507035807 | 62 | 42 | 4.3 | 5.2 | 0.00 | 0.00 | 0.00 | ||
| 20260507035308 | 63 | 42 | 5.2 | 6.1 | 0.00 | 0.00 | 0.00 | ||
| 20260507034806 | 63 | 52 | 6.1 | 6.1 | 0.00 | 0.00 | 0.00 | ||
| 20260507034306 | 63 | 44 | 7.0 | 8.7 | 0.00 | 0.00 | 0.00 | ||
| 20260507033304 | 63 | 89 | 5.2 | 7.0 | 0.00 | 0.00 | 0.00 | ||
| 20260507032804 | 63 | 70 | 6.1 | 6.1 | 0.00 | 0.00 | 0.00 | ||
| 20260507032306 | 64 | 62 | 4.3 | 4.3 | 0.00 | 0.00 | 0.00 | ||
| 20260507031803 | 64 | 49 | 2.6 | 5.2 | 0.00 | 0.00 | 0.00 | ||
| 20260507031303 | 64 | 53 | 5.2 | 3.5 | 0.00 | 0.00 | 0.00 | ||
| 20260507030804 | 64 | 35 | 6.1 | 6.1 | 0.00 | 0.00 | 0.00 | ||
| 20260507030301 | 64 | 66 | 6.1 | 6.1 | 0.00 | 0.00 | 0.00 | ||
| 20260507025802 | 65 | 75 | 6.1 | 7.0 | 0.00 | 0.00 | 0.00 | ||
| 20260507025306 | 64 | 42 | 7.0 | 6.1 | 0.00 | 0.00 | 0.00 | ||
| 20260507024800 | 65 | 31 | 3.5 | 2.6 | 0.00 | 0.00 | 0.00 | ||
| 20260507024301 | 65 | 72 | 3.5 | 3.5 | 0.00 | 0.00 | 0.00 | ||
| 20260507023801 | 65 | 45 | 4.3 | 5.2 | 0.00 | 0.00 | 0.00 | ||
| 20260507023259 | 65 | 56 | 6.1 | 5.2 | 0.00 | 0.00 | 0.00 | ||
| 20260507022759 | 65 | 56 | 6.1 | 5.2 | 0.00 | 0.00 | 0.00 | ||
| 20260507022300 | 66 | 39 | 6.1 | 6.1 | 0.00 | 0.00 | 0.00 | ||
| 20260507021757 | 67 | 42 | 4.3 | 4.3 | 0.00 | 0.00 | 0.00 | ||
| 20260507021258 | 67 | 69 | 7.0 | 4.3 | 0.00 | 0.00 | 0.00 | ||
| 20260507020758 | 67 | 68 | 8.7 | 7.0 | 0.00 | 0.00 | 0.00 | ||
| 20260507020256 | 67 | 69 | 5.2 | 4.3 | 0.00 | 0.00 | 0.00 | ||
| 20260507015757 | 67 | 51 | 7.0 | 5.2 | 0.00 | 0.00 | 0.00 | ||
| 20260507015257 | 67 | 48 | 4.3 | 7.0 | 0.00 | 0.00 | 0.00 | ||
| 20260507014755 | 67 | 58 | 4.3 | 3.5 | 0.00 | 0.00 | 0.00 | ||
| 20260507014255 | 68 | 27 | 3.5 | 4.3 | 0.00 | 0.00 | 0.00 | ||
| 20260507013756 | 68 | 51 | 3.5 | 3.5 | 0.00 | 0.00 | 0.00 | ||
| 20260507013253 | 69 | 49 | 7.0 | 7.0 | 0.00 | 0.00 | 0.00 | ||
| 20260507012753 | 68 | 51 | 7.0 | 7.0 | 0.00 | 0.00 | 0.00 | ||
| 20260507012253 | 68 | 44 | 6.1 | 7.8 | 0.00 | 0.00 | 0.00 | ||
| 20260507011750 | 69 | 73 | 7.0 | 8.7 | 0.00 | 0.00 | 0.00 | ||
| 20260507011251 | 69 | 31 | 6.1 | 5.2 | 0.00 | 0.00 | 0.00 | ||
| 20260507010751 | 69 | 46 | 5.2 | 5.2 | 0.00 | 0.00 | 0.00 | ||
| 20260507010249 | 69 | 17 | 8.7 | 7.8 | 0.00 | 0.00 | 0.00 | ||
| 20260507005749 | 69 | 44 | 6.1 | 7.8 | 0.00 | 0.00 | 0.00 | ||
| 20260507005249 | 70 | 46 | 5.2 | 4.3 | 0.00 | 0.00 | 0.00 | ||
| 20260507004746 | 70 | 38 | 7.8 | 9.6 | 0.00 | 0.00 | 0.00 | ||
| 20260507003746 | 70 | 89 | 7.0 | 7.0 | 0.00 | 0.00 | 0.00 | ||
| 20260507003244 | 70 | 45 | 8.7 | 7.8 | 0.00 | 0.00 | 0.00 | ||
| 20260507002744 | 70 | 44 | 7.8 | 7.0 | 0.00 | 0.00 | 0.00 | ||
| 20260507002244 | 70 | 52 | 9.6 | 9.6 | 0.00 | 0.00 | 0.00 | ||
| 20260507001243 | 70 | 38 | 9.6 | 9.6 | 0.00 | 0.00 | 0.00 | ||
| 20260507000743 | 71 | 42 | 8.7 | 7.0 | 0.00 | 0.00 | 0.00 | ||
| 20260506235741 | 71 | 65 | 7.0 | 8.7 | 0.00 | 0.00 | 0.00 | ||
| 20260506234738 | 71 | 80 | 7.0 | 7.0 | 0.00 | 0.00 | 0.00 | ||
| 20260506234239 | 71 | 63 | 7.8 | 4.3 | 0.00 | 0.00 | 0.00 | ||
| 20260506233739 | 71 | 53 | 7.0 | 7.0 | 0.00 | 0.00 | 0.00 | ||
| 20260506233237 | 71 | 53 | 6.1 | 6.1 | 0.00 | 0.00 | 0.00 | ||
| 20260506232737 | 71 | 27 | 7.0 | 6.1 | 0.00 | 0.00 | 0.00 | ||
| 20260506232238 | 71 | 60 | 5.2 | 5.2 | 0.00 | 0.00 | 0.00 | ||
| 20260506231735 | 71 | 62 | 7.0 | 5.2 | 0.00 | 0.00 | 0.00 | ||
| 20260506231236 | 71 | 51 | 7.8 | 8.7 | 0.00 | 0.00 | 0.00 | ||
| 20260506230736 | 72 | 60 | 7.0 | 5.2 | 0.00 | 0.00 | 0.00 | ||
| 20260506230234 | 72 | 27 | 4.3 | 6.1 | 0.00 | 0.00 | 0.00 | ||
| 20260506225734 | 72 | 65 | 6.1 | 6.1 | 0.00 | 0.00 | 0.00 | ||
| 20260506225235 | 72 | 108 | 7.0 | 5.2 | 0.00 | 0.00 | 0.00 | ||
| 20260506224732 | 72 | 101 | 5.2 | 5.2 | 0.00 | 0.00 | 0.00 | ||
| 20260506224233 | 72 | 42 | 5.2 | 10.4 | 0.00 | 0.00 | 0.00 | ||
| 20260506223733 | 72 | 94 | 6.1 | 6.1 | 0.00 | 0.00 | 0.00 | ||
| 20260506222731 | 72 | 89 | 5.2 | 5.2 | 0.00 | 0.00 | 0.00 | ||
| 20260506222232 | 72 | 56 | 5.2 | 4.3 | 0.00 | 0.00 | 0.00 | ||
| 20260506221729 | 72 | 15 | 6.1 | 6.1 | 0.00 | 0.00 | 0.00 | ||
| 20260506221230 | 72 | 41 | 4.3 | 5.2 | 0.00 | 0.00 | 0.00 | ||
| 20260506220730 | 72 | 82 | 4.3 | 4.3 | 0.00 | 0.00 | 0.00 | ||
| 20260506220228 | 72 | 100 | 2.6 | 3.5 | 0.00 | 0.00 | 0.00 | ||
| 20260506215728 | 72 | 39 | 2.6 | 0.9 | 0.00 | 0.00 | 0.00 | ||
| 20260506215229 | 71 | 8 | 2.6 | 0.9 | 0.00 | 0.00 | 0.00 | ||
| 20260506214726 | 71 | 42 | 2.6 | 0.0 | 0.00 | 0.00 | 0.00 | ||
| 20260506214227 | 72 | 35 | 0.0 | 5.2 | 0.00 | 0.00 | 0.00 | ||
| 20260506213727 | 72 | 60 | 7.8 | 5.2 | 0.00 | 0.00 | 0.00 | ||
| 20260506213225 | 72 | 104 | 3.5 | 3.5 | 0.00 | 0.00 | 0.00 | ||
| 20260506212725 | 71 | 28 | 4.3 | 0.0 | 0.00 | 0.00 | 0.00 | ||
| 20260506212226 | 71 | 32 | 7.0 | 7.0 | 0.00 | 0.00 | 0.00 | ||
| 20260506211723 | 70 | 39 | 4.3 | 4.3 | 0.00 | 0.00 | 0.00 | ||
| 20260506211224 | 70 | 11 | 4.3 | 7.8 | 0.00 | 0.00 | 0.00 | ||
| 20260506210724 | 69 | 42 | 4.3 | 2.6 | 0.00 | 0.00 | 0.00 | ||
| 20260506210222 | 70 | 59 | 3.5 | 1.7 | 0.00 | 0.00 | 0.00 | ||
| 20260506205722 | 70 | 55 | 4.3 | 6.1 | 0.00 | 0.00 | 0.00 | ||
| 20260506205223 | 70 | 28 | 5.2 | 4.3 | 0.00 | 0.00 | 0.00 | ||
| 20260506204720 | 70 | 65 | 5.2 | 2.6 | 0.00 | 0.00 | 0.00 | ||
| 20260506204221 | 69 | 72 | 7.0 | 7.0 | 0.00 | 0.00 | 0.00 | ||
| 20260506203721 | 69 | 58 | 3.5 | 4.3 | 0.00 | 0.00 | 0.00 | ||
| 20260506202719 | 70 | 39 | 4.3 | 7.8 | 0.00 | 0.00 | 0.00 | ||
| 20260506202220 | 69 | 82 | 6.1 | 4.3 | 0.00 | 0.00 | 0.00 | ||
| 20260506201718 | 69 | 44 | 5.2 | 6.1 | 0.00 | 0.00 | 0.00 | ||
| 20260506201218 | 69 | 87 | 5.2 | 2.6 | 0.00 | 0.00 | 0.00 | ||
| 20260506200719 | 68 | 37 | 7.8 | 5.2 | 0.00 | 0.00 | 0.00 | ||
| 20260506200216 | 69 | 63 | 6.1 | 7.0 | 0.00 | 0.00 | 0.00 | ||
| 20260506195717 | 68 | 39 | 6.1 | 5.2 | 0.00 | 0.00 | 0.00 | ||
| 20260506195217 | 67 | 330 | 6.1 | 4.3 | 0.00 | 0.00 | 0.00 | ||
| 20260506194715 | 67 | 60 | 8.7 | 6.1 | 0.00 | 0.00 | 0.00 | ||
| 20260506194215 | 67 | 14 | 7.8 | 5.2 | 0.00 | 0.00 | 0.00 | ||
| 20260506193716 | 67 | 17 | 7.8 | 5.2 | 0.00 | 0.00 | 0.00 | ||
| 20260506193214 | 67 | 10 | 5.2 | 0.0 | 0.00 | 0.00 | 0.00 | ||
| 20260506192714 | 65 | 72 | 7.0 | 8.7 | 0.00 | 0.00 | 0.00 | ||
| 20260506192214 | 64 | 70 | 5.2 | 3.5 | 0.00 | 0.00 | 0.00 | ||
| 20260506191711 | 64 | 18 | 7.8 | 8.7 | 0.00 | 0.00 | 0.00 | ||
| 20260506191212 | 63 | 68 | 6.1 | 6.1 | 0.00 | 0.00 | 0.00 | ||
| 20260506190712 | 63 | 80 | 6.1 | 4.3 | 0.00 | 0.00 | 0.00 | ||
| 20260506190210 | 63 | 30 | 6.1 | 4.3 | 0.00 | 0.00 | 0.00 | ||
| 20260506185709 | 64 | 72 | 6.1 | 7.0 | 0.00 | 0.00 | 0.00 | ||
| 20260506184707 | 63 | 94 | 4.3 | 5.2 | 0.00 | 0.00 | 0.00 | ||
| 20260506184208 | 62 | 60 | 7.8 | 7.8 | 0.00 | 0.00 | 0.00 | ||
| 20260506183708 | 62 | 65 | 7.8 | 6.1 | 0.00 | 0.00 | 0.00 | ||
| 20260506183206 | 63 | 66 | 6.1 | 6.1 | 0.00 | 0.00 | 0.00 | ||
| 20260506182706 | 63 | 3 | 7.8 | 7.8 | 0.00 | 0.00 | 0.00 | ||
| 20260506182207 | 63 | 62 | 7.8 | 6.1 | 0.00 | 0.00 | 0.00 | ||
| 20260506181704 | 63 | 77 | 5.2 | 6.1 | 0.00 | 0.00 | 0.00 | ||
| 20260506181205 | 64 | 23 | 5.2 | 7.0 | 0.00 | 0.00 | 0.00 | ||
| 20260506180705 | 63 | 28 | 4.3 | 2.6 | 0.00 | 0.00 | 0.00 | ||
| 20260506180203 | 63 | 86 | 5.2 | 4.3 | 0.00 | 0.00 | 0.00 | ||
| 20260506175703 | 63 | 30 | 7.0 | 6.1 | 0.00 | 0.00 | 0.00 | ||
| 20260506175204 | 63 | 39 | 6.1 | 6.1 | 0.00 | 0.00 | 0.00 | ||
| 20260506174701 | 62 | 51 | 5.2 | 4.3 | 0.00 | 0.00 | 0.00 | ||
| 20260506174202 | 64 | 4 | 7.0 | 6.1 | 0.00 | 0.00 | 0.00 | ||
| 20260506174022 | 63 | 30 | 6.1 | 6.1 | 0.00 | 0.00 | 0.00 | ||
| 20260506173702 | 63 | 30 | 6.1 | 6.1 | 0.00 | 0.00 | 0.00 | ||
| 20260506173200 | 63 | 13 | 3.5 | 7.8 | 0.00 | 0.00 | 0.00 | ||
| 20260506172700 | 63 | 10 | 6.1 | 4.3 | 0.00 | 0.00 | 0.00 | ||
| 20260506172201 | 63 | 24 | 4.3 | 5.2 | 0.00 | 0.00 | 0.00 | ||
| 20260506171659 | 62 | 24 | 6.1 | 6.1 | 0.00 | 0.00 | 0.00 | ||
| 20260506171159 | 62 | 34 | 2.6 | 1.7 | 0.00 | 0.00 | 0.00 | ||
| 20260506170700 | 63 | 339 | 7.0 | 7.8 | 0.00 | 0.00 | 0.00 | ||
| 20260506170157 | 63 | 329 | 7.8 | 6.1 | 0.00 | 0.00 | 0.00 | ||
| 20260506165658 | 62 | 352 | 7.8 | 8.7 | 0.00 | 0.00 | 0.00 | ||
| 20260506165158 | 61 | 338 | 8.7 | 7.8 | 0.00 | 0.00 | 0.00 | ||
| 20260506164743 | 62 | 353 | 3.5 | 4.3 | 0.00 | 0.00 | 0.00 | ||
| 20260506164656 | 62 | 353 | 3.5 | 4.3 | 0.00 | 0.00 | 0.00 | ||
| 20260506164156 | 62 | 32 | 8.7 | 7.0 | 0.00 | 0.00 | 0.00 | ||
| 20260506163656 | 61 | 359 | 5.2 | 5.2 | 0.00 | 0.00 | 0.00 | ||
| 20260506163155 | 61 | 359 | 6.1 | 4.3 | 0.00 | 0.00 | 0.00 | ||
| 20260506162654 | 61 | 343 | 7.0 | 5.2 | 0.00 | 0.00 | 0.00 | ||
| 20260506162155 | 61 | 338 | 7.0 | 7.8 | 0.00 | 0.00 | 0.00 | ||
| 20260506161653 | 60 | 11 | 7.8 | 6.1 | 0.00 | 0.00 | 0.00 | ||
| 20260506161153 | 60 | 346 | 6.1 | 4.3 | 0.00 | 0.00 | 0.00 | ||
| 20260506160654 | 59 | 4 | 6.1 | 6.1 | 0.00 | 0.00 | 0.00 | ||
| 20260506160151 | 59 | 3 | 7.0 | 8.7 | 0.00 | 0.00 | 0.00 | ||
| 20260506155652 | 58 | 14 | 7.0 | 7.0 | 0.00 | 0.00 | 0.00 | ||
| 20260506155152 | 58 | 4 | 5.2 | 7.8 | 0.00 | 0.00 | 0.00 | ||
| 20260506154806 | 57 | 353 | 5.2 | 2.6 | 0.00 | 0.00 | 0.00 | ||
| 20260506154650 | 57 | 353 | 5.2 | 2.6 | 0.00 | 0.00 | 0.00 | ||
| 20260506154150 | 57 | 350 | 5.2 | 5.2 | 0.00 | 0.00 | 0.00 | ||
| 20260506153650 | 57 | 39 | 6.1 | 6.1 | 0.00 | 0.00 | 0.00 | ||
| 20260506153148 | 57 | 39 | 5.2 | 7.0 | 0.00 | 0.00 | 0.00 | ||
| 20260506152648 | 57 | 24 | 6.1 | 6.1 | 0.00 | 0.00 | 0.00 | ||
| 20260506152149 | 56 | 20 | 7.8 | 6.1 | 0.00 | 0.00 | 0.00 | ||
| 20260506151646 | 57 | 333 | 7.8 | 7.8 | 0.00 | 0.00 | 0.00 | ||
| 20260506151147 | 56 | 359 | 8.7 | 7.0 | 0.00 | 0.00 | 0.00 | ||
| 20260506150647 | 57 | 328 | 8.7 | 7.8 | 0.00 | 0.00 | 0.00 | ||
| 20260506150145 | 57 | 329 | 7.8 | 8.7 | 0.00 | 0.00 | 0.00 | ||
| 20260506145645 | 56 | 323 | 8.7 | 7.8 | 0.00 | 0.00 | 0.00 | ||
| 20260506145146 | 56 | 326 | 7.8 | 7.8 | 0.00 | 0.00 | 0.00 | ||
| 20260506144144 | 56 | 330 | 7.0 | 6.1 | 0.00 | 0.00 | 0.00 | ||
| 20260506143645 | 55 | 328 | 7.8 | 5.2 | 0.00 | 0.00 | 0.00 | ||
| 20260506143403 | 55 | 335 | 9.6 | 7.8 | 0.00 | 0.00 | 0.00 | ||
| 20260506143142 | 55 | 335 | 9.6 | 7.8 | 0.00 | 0.00 | 0.00 | ||
| 20260506142643 | 55 | 322 | 7.8 | 8.7 | 0.00 | 0.00 | 0.00 | ||
| 20260506142143 | 54 | 316 | 9.6 | 7.0 | 0.00 | 0.00 | 0.00 | ||
| 20260506141641 | 54 | 314 | 6.1 | 6.1 | 0.00 | 0.00 | 0.00 | ||
| 20260506141141 | 54 | 345 | 8.7 | 7.8 | 0.00 | 0.00 | 0.00 | ||
| 20260506140642 | 54 | 25 | 7.8 | 6.1 | 0.00 | 0.00 | 0.00 | ||
| 20260506140139 | 54 | 3 | 8.7 | 10.4 | 0.00 | 0.00 | 0.00 | ||
| 20260506135640 | 53 | 350 | 8.7 | 10.4 | 0.00 | 0.00 | 0.00 | ||
| 20260506135140 | 53 | 359 | 7.8 | 7.8 | 0.00 | 0.00 | 0.00 | ||
| 20260506134638 | 53 | 345 | 8.7 | 9.6 | 0.00 | 0.00 | 0.00 | ||
| 20260506134138 | 53 | 353 | 7.8 | 8.7 | 0.00 | 0.00 | 0.00 | ||
| 20260506133639 | 53 | 354 | 8.7 | 8.7 | 0.00 | 0.00 | 0.00 | ||
| 20260506133136 | 53 | 1 | 9.6 | 11.3 | 0.00 | 0.00 | 0.00 | ||
| 20260506132638 | 53 | 349 | 7.8 | 7.8 | 0.00 | 0.00 | 0.00 | ||
| 20260506132137 | 53 | 10 | 8.7 | 7.0 | 0.00 | 0.00 | 0.00 | ||
| 20260506131635 | 53 | 359 | 7.0 | 7.0 | 0.00 | 0.00 | 0.00 | ||
| 20260506131135 | 52 | 18 | 7.8 | 7.8 | 0.00 | 0.00 | 0.00 | ||
| 20260506130636 | 52 | 38 | 10.4 | 10.4 | 0.00 | 0.00 | 0.00 | ||
| 20260506130133 | 52 | 18 | 11.3 | 9.6 | 0.00 | 0.00 | 0.00 | ||
| 20260506125634 | 53 | 336 | 10.4 | 9.6 | 0.00 | 0.00 | 0.00 |